Total_Precipitation_Accumulation
0.00 0.00 0.00 0.00 0.00 0.00 0.00 0.00 0.00 0.00 0.01 0.01 0.02 0.01 0.01 0.01 0.02 0.04 0.08 0.10 0.12 0.15 0.17 0.21 0.25 0.27 0.29
0.00 0.00 0.00 0.00 0.00 0.00 0.00 0.01 0.01 0.01 0.01 0.00 0.00 0.00 0.00 0.01 0.02 0.05 0.05 0.05 0.07 0.11 0.14 0.16 0.17 0.18 0.20
0.01 0.00 0.01 0.01 0.01 0.01 0.01 0.00 0.00 0.00 0.00 0.00 0.00 0.00 0.01 0.01 0.02 0.05 0.10 0.12 0.13 0.12 0.14 0.16 0.18 0.20 0.21
0.14 0.14 0.06 0.03 0.04 0.02 0.00 0.00 0.00 0.00 0.00 0.00 0.00 0.00 0.00 0.01 0.01 0.02 0.02 0.03 0.04 0.04 0.05 0.07 0.09 0.10 0.12
0.27 0.19 0.14 0.04 0.00 0.00 0.00 0.01 0.01 0.00 0.00 0.00 0.00 0.00 0.00 0.00 0.00 0.00 0.01 0.02 0.03 0.06 0.09 0.12 0.13 0.12 0.11
0.33 0.13 0.01 0.00 0.00 0.04 0.11 0.11 0.08 0.01 0.01 0.01 0.00 0.00 0.00 0.00 0.00 0.01 0.03 0.05 0.07 0.10 0.14 0.16 0.17 0.16 0.18
0.02 0.00 0.01 0.04 0.22 0.23 0.13 0.13 0.10 0.01 0.02 0.02 0.00 0.00 0.00 0.00 0.01 0.01 0.02 0.04 0.06 0.08 0.10 0.13 0.14 0.13 0.14
0.01 0.02 0.07 0.10 0.10 0.13 0.16 0.12 0.03 0.00 0.00 0.08 0.01 0.00 0.00 0.00 0.00 0.01 0.02 0.03 0.05 0.08 0.10 0.11 0.12 0.14 0.13
0.06 0.03 0.01 0.00 0.01 0.20 0.19 0.15 0.08 0.00 0.00 0.05 0.03 0.01 0.00 0.00 0.00 0.00 0.05 0.08 0.11 0.12 0.13 0.17 0.20 0.19 0.16
0.01 0.00 0.00 0.00 0.00 0.05 0.22 0.47 0.18 0.16 0.00 0.23 0.12 0.07 0.28 0.02 0.00 0.03 0.02 0.00 0.01 0.02 0.05 0.08 0.11 0.14 0.18
0.00 0.00 0.00 0.00 0.00 0.02 0.11 0.46 0.59 0.37 0.02 0.47 0.48 0.10 0.26 0.09 0.01 0.00 0.00 0.01 0.03 0.02 0.02 0.04 0.09 0.14 0.28
0.01 0.00 0.01 0.02 0.02 0.02 0.03 0.09 0.21 0.47 0.19 0.31 0.68 0.31 0.43 0.19 0.03 0.00 0.00 0.02 0.17 0.12 0.10 0.09 0.13 0.17 0.23
0.05 0.03 0.03 0.04 0.04 0.03 0.02 0.03 0.05 0.07 0.15 0.15 0.39 0.31 0.31 0.32 0.27 0.05 0.15 0.07 0.23 0.46 0.35 0.23 0.20 0.17 0.20
0.11 0.04 0.03 0.03 0.05 0.06 0.11 0.07 0.09 0.01 0.01 0.06 0.23 0.34 0.30 0.13 0.39 0.20 0.15 0.49 0.40 0.59 0.68 0.26 0.16 0.12 0.08
0.08 0.07 0.03 0.03 0.03 0.03 0.11 0.11 0.12 0.09 0.05 0.01 0.03 0.06 0.10 0.20 0.21 0.24 0.45 0.36 0.51 0.92 0.88 0.39 0.20 0.14 0.08
0.05 0.06 0.08 0.06 0.07 0.03 0.04 0.09 0.13 0.08 0.08 0.04 0.05 0.03 0.02 0.04 0.30 0.53 0.41 0.45 0.62 0.85 0.99 0.42 0.36 0.42 0.32
0.08 0.11 0.14 0.09 0.05 0.06 0.06 0.06 0.06 0.08 0.05 0.06 0.12 0.15 0.15 0.06 0.07 0.42 0.67 0.59 0.48 0.55 0.67 0.49 0.52 0.66 0.49